Weather History for Edinburg, TX

Change the Weather History Date:

Thursday, March 21, 2013

  Actual Average (KMFE) Record (KMFE)
Temperature  
Mean Temperature 69 °F 72 °F  
Max Temperature 82 °F 83 °F 100 °F (1952)
Min Temperature 57 °F 61 °F 37 °F (1902)
Degree Days  
Heating Degree Days 0 1  
Month to date heating degree days 32  
Since 1 July heating degree days 565  
Cooling Degree Days 4 8  
Month to date cooling degree days 131  
Year to date cooling degree days 290  
Growing Degree Days 19 (Base 50)    
Moisture  
Dew Point 59 °F    
Average Humidity 69    
Maximum Humidity 84    
Minimum Humidity 52    
Precipitation  
Precipitation 0.00 in 0.04 in 0.38 in (1956)
Month to date precipitation 0.69  
Year to date precipitation 2.85  
Sea Level Pressure  
Sea Level Pressure 29.83 in    
Wind  
Wind Speed 5 mph (SE)    
Max Wind Speed 18 mph    
Max Gust Speed 24 mph    
Visibility 6 miles    
Events      
T = Trace of Precipitation, MM = Missing Value Source: NWS Daily Summary

Daily Weather History Graph

Daily Weather History Graph

Search for Another Location

Airport:

Trip Planner

Search our weather history database for the weather conditions in past years. The results will help you decide how hot, cold, wet, or windy it might be!

Date:

Astronomy

Mar. 21, 2013 Rise Set
Actual Time 7:35 AM CDT 7:44 PM CDT
Civil Twilight 7:11 AM CDT 8:07 PM CDT
Nautical Twilight 6:45 AM CDT 8:34 PM CDT
Astronomical Twilight 6:18 AM CDT 9:01 PM CDT
Moon 2:41 PM CDT (3/21) 3:30 AM CDT (3/21)
Length of Visible Light 12h 55m
Length of Day
12h 09m
Waxing Gibbous, 69% of the Moon is Illuminated
Mar 21
Waxing Gibbous
Mar 27
Full
Apr 2
Last Quarter
Apr 10
New
Apr 18
First Quarter

Hourly Weather History & Observations

Time (CDT) Temp. Heat Index Dew Point Humidity Pressure Visibility Wind Dir Wind Speed Gust Speed Precip Events Conditions
12:15 AM 64.4 °F - 55.4 °F 73% 30.06 in 7.0 mi Calm Calm - N/A   Mostly Cloudy
12:35 AM 63.9 °F - 55.4 °F 74% 30.05 in 7.0 mi Calm Calm - N/A   Mostly Cloudy
12:55 AM 64.0 °F - 55.4 °F 73% 30.05 in 7.0 mi Calm Calm - N/A   Mostly Cloudy
1:15 AM 63.9 °F - 55.4 °F 74% 30.04 in 7.0 mi Calm Calm - N/A   Mostly Cloudy
1:35 AM 63.1 °F - 55.0 °F 75% 30.02 in 7.0 mi Calm Calm - N/A   Scattered Clouds
1:55 AM 61.9 °F - 54.5 °F 77% 30.01 in 10.0 mi Calm Calm - N/A   Clear
2:15 AM 61.9 °F - 54.9 °F 78% 30.00 in 7.0 mi Calm Calm - N/A   Clear
2:35 AM 61.0 °F - 53.8 °F 77% 29.99 in 7.0 mi Calm Calm - N/A   Clear
2:55 AM 61.5 °F - 54.5 °F 78% 29.99 in 7.0 mi Calm Calm - N/A   Clear
3:35 AM 59.4 °F - 53.1 °F 80% 29.97 in 7.0 mi Calm Calm - N/A   Clear
3:55 AM 59.9 °F - 53.8 °F 80% 29.96 in 7.0 mi Calm Calm - N/A   Clear
4:15 AM 59.4 °F - 53.1 °F 80% 29.95 in 7.0 mi Calm Calm - N/A   Clear
4:35 AM 57.4 °F - 51.6 °F 81% 29.94 in 7.0 mi Calm Calm - N/A   Clear
4:55 AM 57.4 °F - 51.6 °F 81% 29.92 in 7.0 mi ENE 3.5 mph - N/A   Clear
5:15 AM 57.2 °F - 51.8 °F 82% 29.91 in 7.0 mi East 3.5 mph - N/A   Clear
5:35 AM 57.9 °F - 53.1 °F 84% 29.91 in 7.0 mi East 4.6 mph - N/A   Scattered Clouds
5:55 AM 57.6 °F - 52.9 °F 84% 29.91 in 7.0 mi Calm Calm - N/A   Scattered Clouds
6:15 AM 57.9 °F - 53.1 °F 84% 29.90 in 7.0 mi Calm Calm - N/A   Clear
6:35 AM 58.1 °F - 53.4 °F 84% 29.91 in 5.0 mi Calm Calm - N/A   Haze
6:55 AM 59.2 °F - 54.5 °F 84% 29.91 in 7.0 mi Calm Calm - N/A   Mostly Cloudy
7:15 AM 59.5 °F - 54.5 °F 83% 29.91 in 7.0 mi Calm Calm - N/A   Overcast
7:35 AM 61.3 °F - 55.8 °F 82% 29.92 in 7.0 mi East 3.5 mph - N/A   Overcast
7:55 AM 62.6 °F - 56.3 °F 80% 29.91 in 4.0 mi Calm Calm - N/A   Haze
8:15 AM 63.0 °F - 56.5 °F 79% 29.91 in 4.0 mi East 3.5 mph - N/A   Haze
8:35 AM 65.1 °F - 58.1 °F 78% 29.91 in 7.0 mi ESE 4.6 mph - N/A   Overcast
8:55 AM 67.1 °F - 58.6 °F 74% 29.92 in 5.0 mi ESE 8.1 mph - N/A   Haze
9:15 AM 67.5 °F - 58.8 °F 74% 29.91 in 4.0 mi ESE 9.2 mph - N/A   Haze
9:35 AM 68.9 °F - 59.2 °F 71% 29.91 in 5.0 mi ESE 11.5 mph - N/A   Haze
9:55 AM 70.0 °F - 59.4 °F 69% 29.90 in 5.0 mi ESE 11.5 mph - N/A   Haze
10:15 AM 71.2 °F - 59.9 °F 67% 29.90 in 5.0 mi ESE 11.5 mph - N/A   Haze
10:35 AM 73.0 °F - 60.1 °F 64% 29.90 in 4.0 mi SE 12.7 mph - N/A   Haze
10:55 AM 73.9 °F - 59.5 °F 61% 29.90 in 5.0 mi SE 15.0 mph - N/A   Haze
11:15 AM 74.8 °F - 59.7 °F 59% 29.88 in 5.0 mi SSE 15.0 mph 20.7 mph N/A   Haze
11:35 AM 75.2 °F - 59.9 °F 59% 29.87 in 7.0 mi SE 16.1 mph - N/A   Overcast
12:55 PM 77.0 °F - 60.4 °F 56% 29.83 in 7.0 mi SSE 9.2 mph 21.9 mph N/A   Overcast
1:15 PM 77.0 °F - 60.1 °F 56% 29.83 in 7.0 mi SE 12.7 mph - N/A   Overcast
1:35 PM 77.0 °F - 60.4 °F 56% 29.82 in 7.0 mi SSE 11.5 mph - N/A   Overcast
1:55 PM 77.9 °F - 60.8 °F 56% 29.79 in 7.0 mi SSE 15.0 mph - N/A   Overcast
2:15 PM 78.3 °F - 61.2 °F 56% 29.78 in 5.0 mi SSE 12.7 mph - N/A   Haze
2:35 PM 78.8 °F - 61.3 °F 55% 29.76 in 5.0 mi SSE 13.8 mph - N/A   Haze
2:55 PM 80.2 °F 81.3 °F 61.5 °F 53% 29.75 in 5.0 mi SSE 15.0 mph 20.7 mph N/A   Haze
3:15 PM 80.6 °F 81.6 °F 61.3 °F 52% 29.73 in 7.0 mi SSE 15.0 mph 21.9 mph N/A   Overcast
3:35 PM 80.4 °F 81.5 °F 61.7 °F 53% 29.72 in 5.0 mi South 13.8 mph 20.7 mph N/A   Haze
3:55 PM 80.8 °F 81.8 °F 61.7 °F 52% 29.71 in 5.0 mi SSE 18.4 mph - N/A   Haze
4:15 PM 80.6 °F 81.6 °F 61.7 °F 52% 29.70 in 7.0 mi SSE 13.8 mph 19.6 mph N/A   Overcast
4:55 PM 81.3 °F 82.3 °F 62.1 °F 52% 29.68 in 7.0 mi SSE 16.1 mph 19.6 mph N/A   Overcast
5:15 PM 80.6 °F 81.7 °F 62.2 °F 53% 29.67 in 7.0 mi SSE 15.0 mph 24.2 mph N/A   Overcast
5:35 PM 81.5 °F 82.7 °F 62.6 °F 53% 29.67 in 5.0 mi SE 17.3 mph 23.0 mph N/A   Haze
5:55 PM 80.4 °F 81.7 °F 62.8 °F 55% 29.66 in 5.0 mi SSE 16.1 mph 23.0 mph N/A   Haze
6:15 PM 79.9 °F - 63.1 °F 56% 29.66 in 5.0 mi SSE 13.8 mph - N/A   Haze
6:35 PM 79.3 °F - 63.5 °F 58% 29.66 in 7.0 mi SSE 12.7 mph 21.9 mph N/A   Overcast
6:55 PM 78.8 °F - 63.5 °F 59% 29.66 in 5.0 mi SSE 12.7 mph 18.4 mph N/A   Haze
7:15 PM 78.3 °F - 63.9 °F 61% 29.67 in 7.0 mi SSE 12.7 mph - N/A   Overcast
7:35 PM 77.5 °F - 64.2 °F 63% 29.67 in 5.0 mi SSE 13.8 mph 19.6 mph N/A   Haze
7:55 PM 77.2 °F - 64.4 °F 65% 29.67 in 7.0 mi SSE 16.1 mph 21.9 mph N/A   Overcast
8:15 PM 76.5 °F - 64.4 °F 66% 29.67 in 7.0 mi SSE 15.0 mph 20.7 mph N/A   Overcast
8:55 PM 75.7 °F - 64.4 °F 68% 29.69 in 7.0 mi SSE 15.0 mph 18.4 mph N/A   Overcast
9:15 PM 75.2 °F - 64.4 °F 69% 29.69 in 7.0 mi SSE 10.4 mph 19.6 mph N/A   Overcast
9:55 PM 74.7 °F - 64.8 °F 71% 29.69 in 7.0 mi SSE 13.8 mph 17.3 mph N/A   Overcast
10:15 PM 74.8 °F - 65.1 °F 72% 29.69 in 7.0 mi SSE 13.8 mph - N/A   Overcast
10:35 PM 75.2 °F - 65.5 °F 72% 29.70 in 5.0 mi South 12.7 mph 20.7 mph N/A   Haze
10:55 PM 74.8 °F - 65.7 °F 73% 29.71 in 7.0 mi SSE 11.5 mph 17.3 mph N/A   Overcast
11:15 PM 75.2 °F - 65.8 °F 73% 29.71 in 7.0 mi SSE 13.8 mph 17.3 mph N/A   Overcast
11:35 PM 75.2 °F - 65.8 °F 73% 29.71 in 7.0 mi South 9.2 mph - N/A   Overcast
11:55 PM 75.2 °F - 65.8 °F 73% 29.70 in 7.0 mi SSE 12.7 mph 18.4 mph N/A   Overcast